Simultaneous Nadir Overpasses (SNOs) Predictions

Prediction of SNOs between GOES-17 and NOAA-19 Satellite Orbit:

Table of predicted SNOs for the next 14.0 days since TLE Epoch: 11/19/2022
Index Date Time (GOES-17) GOES-17 Lat,Lon NOAA-19 Lat,Lon Distance(km) Time Diff (sec)
1 11/19/2022 17:11:21 -0.03,-137.34 -0.53,-135.31 232.00 80
2 11/22/2022 05:31:56 0.03,-137.31 -0.64,-140.19 327.90 80
3 11/23/2022 05:20:01 0.03,-137.30 0.03,-137.28 2.50 80
4 11/24/2022 05:08:07 0.02,-137.29 0.69,-134.38 332.58 80
5 11/26/2022 17:25:43 -0.01,-137.26 0.44,-139.18 219.17 80
6 11/27/2022 17:16:28 -0.01,-137.24 -0.23,-136.28 110.24 80
7 11/28/2022 17:04:34 -0.00,-137.22 -0.91,-133.37 439.54 80
8 11/30/2022 05:34:23 -0.00,-137.18 -0.91,-141.16 453.50 80
9 12/01/2022 05:22:28 -0.00,-137.16 -0.23,-138.25 124.31 80
10 12/02/2022 05:13:13 -0.00,-137.14 0.39,-135.34 204.94 80
